TimeEDT,TemperatureF,Dew PointF,Humidity,Sea Level PressureIn,VisibilityMPH,Wind Direction,Wind SpeedMPH,Gust SpeedMPH,PrecipitationIn,Events,Conditions,WindDirDegrees,DateUTC
12:19 AM,46.4,44.6,93,30.17,10.0,NNE,8.1,-,N/A,,Overcast,20,2012-10-09 04:19:00
12:54 AM,46.9,45.0,93,30.17,10.0,NNE,8.1,-,N/A,,Overcast,30,2012-10-09 04:54:00
1:54 AM,46.9,45.0,93,30.16,4.0,NNE,6.9,-,N/A,,Overcast,30,2012-10-09 05:54:00
2:54 AM,46.9,45.0,93,30.15,5.0,NNE,6.9,-,N/A,,Overcast,30,2012-10-09 06:54:00
4:23 AM,46.4,46.4,100,30.13,4.0,Variable,5.8,-,N/A,,Overcast,0,2012-10-09 08:23:00
4:54 AM,46.9,46.0,97,30.14,5.0,NE,6.9,-,N/A,,Overcast,40,2012-10-09 08:54:00
5:54 AM,46.9,46.0,97,30.15,5.0,Variable,5.8,-,N/A,,Overcast,0,2012-10-09 09:54:00
6:54 AM,46.9,46.0,97,30.16,4.0,Variable,6.9,-,N/A,,Overcast,0,2012-10-09 10:54:00
7:54 AM,48.0,46.9,96,30.17,2.5,Variable,5.8,-,N/A,,Overcast,0,2012-10-09 11:54:00
8:26 AM,48.2,46.4,93,30.18,3.0,NE,5.8,-,N/A,,Overcast,40,2012-10-09 12:26:00
8:43 AM,48.2,46.4,93,30.18,2.5,NE,6.9,-,0.01,,Overcast,40,2012-10-09 12:43:00
8:52 AM,48.2,46.4,93,30.18,4.0,NE,6.9,-,0.01,,Overcast,40,2012-10-09 12:52:00
8:54 AM,48.0,46.9,96,30.19,4.0,Variable,5.8,-,0.01,,Overcast,0,2012-10-09 12:54:00
9:54 AM,48.9,46.9,93,30.19,8.0,NNE,8.1,-,N/A,,Overcast,20,2012-10-09 13:54:00
10:10 AM,50.0,48.2,94,30.19,9.0,NNE,6.9,-,N/A,,Overcast,20,2012-10-09 14:10:00
10:54 AM,51.1,48.0,89,30.19,10.0,NNE,6.9,-,N/A,,Overcast,20,2012-10-09 14:54:00
11:54 AM,52.0,48.0,86,30.17,10.0,NNE,6.9,-,N/A,,Overcast,30,2012-10-09 15:54:00
12:54 PM,54.0,48.0,80,30.17,10.0,NE,4.6,-,N/A,,Overcast,50,2012-10-09 16:54:00
1:24 PM,53.6,46.4,77,30.14,10.0,NNE,3.5,-,N/A,,Overcast,20,2012-10-09 17:24:00
1:54 PM,55.0,48.0,77,30.13,10.0,Calm,Calm,-,N/A,,Overcast,0,2012-10-09 17:54:00
2:54 PM,55.9,48.0,75,30.12,10.0,Calm,Calm,-,N/A,,Overcast,0,2012-10-09 18:54:00
3:54 PM,57.9,48.0,70,30.11,10.0,Calm,Calm,-,N/A,,Overcast,0,2012-10-09 19:54:00
4:54 PM,57.9,48.0,70,30.10,10.0,ENE,5.8,-,N/A,,Overcast,70,2012-10-09 20:54:00
5:54 PM,57.0,48.9,74,30.11,10.0,Calm,Calm,-,N/A,,Overcast,0,2012-10-09 21:54:00
6:54 PM,55.9,51.1,84,30.10,10.0,Calm,Calm,-,N/A,,Overcast,0,2012-10-09 22:54:00
7:54 PM,55.0,52.0,89,30.10,10.0,Calm,Calm,-,N/A,,Overcast,0,2012-10-09 23:54:00
8:54 PM,54.0,52.0,93,30.12,10.0,Calm,Calm,-,N/A,,Overcast,0,2012-10-10 00:54:00
9:54 PM,54.0,52.0,93,30.12,10.0,Calm,Calm,-,N/A,,Overcast,0,2012-10-10 01:54:00
10:54 PM,54.0,51.1,90,30.11,10.0,Calm,Calm,-,N/A,,Overcast,0,2012-10-10 02:54:00
11:54 PM,53.1,51.1,93,30.12,10.0,Calm,Calm,-,N/A,,Overcast,0,2012-10-10 03:54:00